< < Back
Terminal Aerodrome Forecast


Current Version              Previous Versions:   1  2  3  4  5  6  7  8  9  

Terminal Aerodrome Forecast

788
FTUS42 KFFC 241100
TAFPDK
TAF
KPDK 241120Z 2412/2512 08008KT P6SM SKC
     FM241500 12007KT P6SM SCT060
     FM242300 16006KT P6SM BKN060
     FM251100 20007KT P6SM BKN050=



Latest METAR

718
SAUS70 KWBC 250700 RRF
MTRPDK
METAR KPDK 250653Z AUTO 17004KT 10SM FEW060 SCT075 OVC090 17/11 A2991
RMK AO2 SLP115 T01720111


USA.gov is the U.S. government's official web portal to all federal, state and local government web resources and services.